Location: Châteauvieux
(47.2310°N, 1.3828°E)
Time: 23:38:46
(UTC+00:00)

Cosmos 1626 Rocket - Pass Details

Date: 15 May 2026
Orbit: 597 x 622 km, 82.5° (Epoch: 11 June)

Event Time Altitude Azimuth Distance (km) Brightness Sun altitude
Rises 20:55:28 0° 348° (NNW) 2,882 8.1 -12.9°
Reaches altitude 10° 20:57:42 10° 346° (NNW) 1,977 7.2 -13.2°
Maximum altitude 21:02:02 69° 264° (W) 662 3.8 -13.7°
Enters shadow 21:05:46 14° 182° (S) 1,728 5.4 -14.1°
